Regional Weather Roundup
Issued by NWS

Home | Current Version | Previous Version | Text Only | Print | Product List | Glossary Off
Versions: 1 2 3 4 5 6 7 8 9 10 11 12 13 14 15 16 17 18 19 20 21 22 23 24 25 26 27

000
ASUS45 KBOI 221610
RWRID

IDAHO REGIONAL WEATHER ROUNDUP
NATIONAL WEATHER SERVICE BOISE ID
1000 AM MDT WED MAR 22 2017

NOTE: "FAIR" INDICATES FEW OR NO CLOUDS BELOW 12000 FEET
WITH NO SIGNIFICANT WEATHER AND/OR OBSTRUCTIONS TO VISIBILITY

IDZ012-014-221700-
SOUTHWEST IDAHO


CITY           SKY/WX    TMP DP  RH WIND       PRES   REMARKS
BOISE          MOSUNNY   49  39  68 SE12      29.92R
CALDWELL       MOSUNNY   47  42  83 CALM      29.93R
MOUNTAIN HOME  MOSUNNY   48  48 100 SE12      29.92S
$$

IDZ016-017-221700-
SOUTHCENTRAL IDAHO


CITY           SKY/WX    TMP DP  RH WIND       PRES   REMARKS
BURLEY         CLOUDY    44  38  79 S9        29.96R
JEROME         CLOUDY    45  41  86 SE9       29.94S
TWIN FALLS     CLOUDY    44  38  79 SE14      29.94F
$$

IDZ019>023-221700-
SOUTHEAST IDAHO


CITY           SKY/WX    TMP DP  RH WIND       PRES   REMARKS
IDAHO FALLS    CLOUDY    44  43  96 SW7       29.95S
POCATELLO      PTSUNNY   46  44  93 SW7       29.97R
REXBURG        CLOUDY    46  40  79 SW8       29.95R
$$

IDZ006-010-011-018-031-032-221700-
CENTRAL IDAHO MOUNTAINS


CITY           SKY/WX    TMP DP  RH WIND       PRES   REMARKS
MCCALL         FOG       32  31  96 CALM      29.90R VSB 1/4
HAILEY         PTSUNNY   37  34  87 W7        29.97R WCI  32
STANLEY          N/A     29  28  96 N3        29.94R
SALMON         MOSUNNY   39  34  81 N3        29.90S
CHALLIS        CLOUDY    38  33  82 CALM      29.91F
$$

IDZ002-004-006-007-026-221700-
NORTHERN IDAHO


CITY           SKY/WX    TMP DP  RH WIND       PRES   REMARKS
LEWISTON       CLOUDY    44  43  96 CALM      29.88R
LOWELL           N/A     43  40  89 N3        29.93R
COEUR D`ALENE  CLOUDY    42  41  96 CALM      29.86S FOG
MULLAN PASS    SNOW      32  32 100 S6        29.83S VSB 1/4 WCI  26
$$




USA.gov is the U.S. government's official web portal to all federal, state and local government web resources and services.